Houston, TX

5:56 PM CST on December 09, 2019 (GMT -0600)
Houston

Weather History for KTME - November, 2019

Change the Weather History Date:

Sunday, November 17, 2019

  Actual Average (KSGR) Record (KSGR)
Temperature  
Mean Temperature 54 °F -  
Max Temperature 68 °F 71 °F 86 °F (2017)
Min Temperature 39 °F 51 °F 32 °F (1996)
Degree Days  
Heating Degree Days 12    
Growing Degree Days 4 (Base 50)    
Moisture  
Dew Point 47 °F    
Average Humidity 78    
Maximum Humidity 100    
Minimum Humidity 42    
Precipitation  
Precipitation 0.00 in - - ()
Sea Level Pressure  
Sea Level Pressure 30.06 in    
Wind  
Wind Speed 1 mph ()    
Max Wind Speed 7 mph    
Max Gust Speed -    
Visibility 9.1 miles    
Events      
Averages and records for this station are not official NWS values.
T = Trace of Precipitation, MM = Missing Value Source: Averaged Metar Reports

Daily Weather History Graph

Daily Weather History Graph

Search for Another Location

Airport or City:

Astronomy

Nov. 17, 2019 Rise Set
Actual Time 6:49 AM CST 5:26 PM CST
Civil Twilight 6:24 AM CST 5:52 PM CST
Nautical Twilight 5:55 AM CST 6:21 PM CST
Astronomical Twilight 5:27 AM CST 6:49 PM CST
Moon 10:09 PM CST (11/17) 11:30 AM CST (11/17)
Length of Visible Light 11h 27m
Length of Day
10h 37m
Waning Gibbous, 73% of the Moon is Illuminated
Nov 17
Waning Gibbous
Nov 19
Last Quarter
Nov 26
New
Dec 4
First Quarter
Dec 11
Full

Hourly Weather History & Observations

Time (CST) Temp. Windchill Dew Point Humidity Pressure Visibility Wind Dir Wind Speed Gust Speed Precip Events Conditions
12:15 AM 44.6 °F - 42.8 °F 93% 30.13 in 10.0 mi Calm Calm - N/A   Clear
12:35 AM 44.6 °F - 42.8 °F 93% 30.12 in 10.0 mi Calm Calm - N/A   Clear
12:55 AM 46.4 °F - 44.6 °F 93% 30.12 in 10.0 mi Calm Calm - N/A   Clear
1:15 AM 44.6 °F - 42.8 °F 93% 30.12 in 10.0 mi Calm Calm - N/A   Clear
1:35 AM 44.6 °F - 42.8 °F 93% 30.12 in 10.0 mi Calm Calm - N/A   Clear
1:55 AM 44.6 °F - 42.8 °F 93% 30.11 in 10.0 mi Calm Calm - N/A   Clear
2:15 AM 44.6 °F - 42.8 °F 93% 30.10 in 9.0 mi Calm Calm - N/A   Clear
2:35 AM 42.8 °F - 42.8 °F 100% 30.10 in 8.0 mi Calm Calm - N/A   Clear
2:55 AM 42.8 °F - 42.8 °F 100% 30.09 in 9.0 mi Calm Calm - N/A   Clear
3:15 AM 42.8 °F 41.1 °F 42.8 °F 100% 30.09 in 10.0 mi ESE 3.5 mph - N/A   Clear
3:35 AM 42.8 °F - 42.8 °F 100% 30.09 in 8.0 mi Calm Calm - N/A   Clear
3:55 AM 42.8 °F 40.1 °F 42.8 °F 100% 30.09 in 7.0 mi ESE 4.6 mph - N/A   Clear
4:15 AM 44.6 °F - 42.8 °F 93% 30.09 in 9.0 mi Calm Calm - N/A   Clear
4:35 AM 42.8 °F - 42.8 °F 100% 30.09 in 8.0 mi Calm Calm - N/A   Clear
4:55 AM 42.8 °F 41.1 °F 42.8 °F 100% 30.08 in 7.0 mi SSE 3.5 mph - N/A   Clear
5:15 AM 42.8 °F - 41.0 °F 93% 30.08 in 9.0 mi Calm Calm - N/A   Clear
5:35 AM 41.0 °F - 41.0 °F 100% 30.08 in 7.0 mi Calm Calm - N/A   Clear
5:55 AM 44.6 °F - 42.8 °F 93% 30.09 in 10.0 mi Calm Calm - N/A   Clear
6:15 AM 42.8 °F - 41.0 °F 93% 30.09 in 10.0 mi Calm Calm - N/A   Clear
6:35 AM 41.0 °F - 39.2 °F 93% 30.09 in 4.0 mi Calm Calm - N/A   Clear
6:55 AM 41.0 °F - 41.0 °F 100% 30.10 in 5.0 mi Calm Calm - N/A   Clear
7:15 AM 39.2 °F 37.0 °F 39.2 °F 100% 30.11 in 4.0 mi ENE 3.5 mph - N/A   Clear
7:35 AM 42.8 °F - 42.8 °F 100% 30.12 in 4.0 mi Calm Calm - N/A   Clear
7:55 AM 44.6 °F - 44.6 °F 100% 30.12 in 4.0 mi Calm Calm - N/A   Clear
8:15 AM 46.4 °F - 46.4 °F 100% 30.12 in 6.0 mi Calm Calm - N/A   Clear
8:35 AM 50.0 °F - 48.2 °F 94% 30.13 in 8.0 mi Calm Calm - N/A   Clear
8:55 AM 53.6 °F - 44.6 °F 72% 30.12 in 10.0 mi SE 5.8 mph - N/A   Clear
9:15 AM 55.4 °F - 42.8 °F 63% 30.12 in 10.0 mi SE 6.9 mph - N/A   Clear
9:35 AM 57.2 °F - 41.0 °F 55% 30.12 in 10.0 mi Variable 3.5 mph - N/A   Clear
9:55 AM 59.0 °F - 41.0 °F 51% 30.12 in 10.0 mi Variable 3.5 mph - N/A   Clear
10:15 AM 60.8 °F - 41.0 °F 48% 30.11 in 10.0 mi Calm Calm - N/A   Clear
10:35 AM 60.8 °F - 41.0 °F 48% 30.11 in 10.0 mi SE 4.6 mph - N/A   Clear
10:55 AM 62.6 °F - 41.0 °F 45% 30.10 in 10.0 mi Variable 5.8 mph - N/A   Clear
11:15 AM 64.4 °F - 41.0 °F 42% 30.10 in 10.0 mi SSW 4.6 mph - N/A   Clear
11:35 AM 64.4 °F - 42.8 °F 45% 30.09 in 10.0 mi Variable 3.5 mph - N/A   Clear
11:55 AM 66.2 °F - 44.6 °F 46% 30.07 in 10.0 mi Variable 4.6 mph - N/A   Clear
12:15 PM 64.4 °F - 44.6 °F 49% 30.06 in 10.0 mi Calm Calm - N/A   Mostly Cloudy
12:35 PM 66.2 °F - 46.4 °F 49% 30.05 in 10.0 mi Calm Calm - N/A   Overcast
12:55 PM 66.2 °F - 46.4 °F 49% 30.05 in 10.0 mi Calm Calm - N/A   Overcast
1:15 PM 68.0 °F - 48.2 °F 49% 30.04 in 10.0 mi Calm Calm - N/A   Overcast
1:35 PM 68.0 °F - 50.0 °F 52% 30.03 in 10.0 mi Calm Calm - N/A   Mostly Cloudy
1:55 PM 68.0 °F - 48.2 °F 49% 30.01 in 10.0 mi Calm Calm - N/A   Mostly Cloudy
2:15 PM 68.0 °F - 50.0 °F 52% 30.01 in 10.0 mi Calm Calm - N/A   Overcast
2:35 PM 68.0 °F - 51.8 °F 56% 30.01 in 9.0 mi Calm Calm - N/A   Overcast
2:55 PM 68.0 °F - 51.8 °F 56% 30.01 in 10.0 mi West 3.5 mph - N/A   Overcast
3:15 PM 68.0 °F - 51.8 °F 56% 30.01 in 10.0 mi Calm Calm - N/A   Overcast
3:35 PM 66.2 °F - 51.8 °F 60% 30.00 in 10.0 mi West 3.5 mph - N/A   Overcast
3:55 PM 66.2 °F - 53.6 °F 64% 30.00 in 10.0 mi Calm Calm - N/A   Overcast
4:15 PM 66.2 °F - 53.6 °F 64% 30.00 in 10.0 mi Calm Calm - N/A   Overcast
4:35 PM 66.2 °F - 53.6 °F 64% 30.01 in 10.0 mi Calm Calm - N/A   Overcast
4:55 PM 66.2 °F - 53.6 °F 64% 30.01 in 10.0 mi Calm Calm - N/A   Overcast
5:15 PM 66.2 °F - 55.4 °F 68% 30.01 in 10.0 mi Calm Calm - N/A   Overcast
5:35 PM 64.4 °F - 53.6 °F 68% 30.01 in 10.0 mi WSW 4.6 mph - N/A   Overcast
5:55 PM 64.4 °F - 55.4 °F 73% 30.02 in 10.0 mi Calm Calm - N/A   Overcast
6:15 PM 64.4 °F - 55.4 °F 73% 30.02 in 10.0 mi Calm Calm - N/A   Overcast
6:35 PM 62.6 °F - 55.4 °F 77% 30.03 in 10.0 mi WNW 3.5 mph - N/A   Overcast
6:55 PM 62.6 °F - 53.6 °F 72% 30.03 in 10.0 mi Calm Calm - N/A   Overcast
7:15 PM 62.6 °F - 55.4 °F 77% 30.04 in 10.0 mi NW 3.5 mph - N/A   Overcast
7:35 PM 62.6 °F - 53.6 °F 72% 30.04 in 10.0 mi Calm Calm - N/A   Overcast
7:55 PM 62.6 °F - 53.6 °F 72% 30.03 in 10.0 mi Calm Calm - N/A   Overcast
8:15 PM 60.8 °F - 53.6 °F 77% 30.03 in 10.0 mi Calm Calm - N/A   Mostly Cloudy
8:35 PM 59.0 °F - 53.6 °F 82% 30.03 in 10.0 mi Calm Calm - N/A   Partly Cloudy
8:55 PM 55.4 °F - 53.6 °F 94% 30.03 in 10.0 mi Calm Calm - N/A   Clear
9:15 PM 55.4 °F - 53.6 °F 94% 30.04 in 10.0 mi Calm Calm - N/A   Clear
9:35 PM 55.4 °F - 53.6 °F 94% 30.03 in 10.0 mi SSW 3.5 mph - N/A   Clear
9:55 PM 55.4 °F - 51.8 °F 88% 30.03 in 10.0 mi Calm Calm - N/A   Clear
10:15 PM 53.6 °F - 51.8 °F 94% 30.04 in 10.0 mi Calm Calm - N/A   Clear
10:35 PM 53.6 °F - 51.8 °F 94% 30.03 in 10.0 mi Calm Calm - N/A   Clear
10:55 PM 51.8 °F - 51.8 °F 100% 30.03 in 10.0 mi Calm Calm - N/A   Clear
11:15 PM 51.8 °F - 51.8 °F 100% 30.03 in 6.0 mi Calm Calm - N/A   Clear
11:35 PM 51.8 °F - 51.8 °F 100% 30.03 in 7.0 mi Calm Calm - N/A   Clear
11:55 PM 51.8 °F - 50.0 °F 94% 30.02 in 10.0 mi Calm Calm - N/A   Clear